Starlink 11595

operational
NORAD ID: 63669 Int'l Des: 2025-085 Owner: SPXS Country: US Constellation: starlink
LEOCIRCULAR

Starlink 11595について

説明を読み込み中...

リアルタイム位置

3D地球を読み込み中...

次回通過

高度履歴

Altitude vs Time

uPlot chart will show altitude changes over time

軌道要素

1 63669U 25085F 25305.53484344 .00319501 00000-0 23897-2 0 9990
2 63669 42.9997 331.1460 0002275 314.6135 45.4547 15.70932556 30734
Epoch: Nov 1, 2025 • Age: 28 hours

現在のステータス

高度 357.9 km
速度 7.70 km/s
衛星直下点 40.42°N, 145.33°E
打ち上げ日 Apr 28, 2025
運用期間 0.5 years
タイプ internet

技術仕様

分類 Payload
質量 960.00 kg
乾燥質量 910.00 kg
総質量 960.00 kg
長さ 0.30 m
直径 4.10 m
スパン 29.00 m
形状 Box + pan
製造者 SPXS
バスタイプ Starlink V2MD
フェーズステータス In Orbit
所有者/国 SPXS/US

大規模コンステレーション

Loading constellations...